Regional Weather Roundup
Issued by NWS

Home | Current Version | Previous Version | Text Only | Print | Product List | Glossary On
Versions: 1 2 3 4 5 6 7 8 9 10 11 12 13 14 15 16 17 18 19 20 21 22 23 24 25 26 27 28
000
ASUS42 KFFC 271503
RWRGA
WEATHER ROUNDUP FOR GEORGIA
NATIONAL WEATHER SERVICE PEACHTREE CITY GA
1100 AM EDT FRI MAY 27 2016

NOTE: "FAIR" INDICATES FEW OR NO CLOUDS BELOW 12,000 FEET WITH NO
SIGNIFICANT WEATHER AND/OR OBSTRUCTIONS TO VISIBILITY.

* = USE WITH CAUTION. THE STATIONS MARKED WITH AN ASTERISK MAY NOT
REPORT WEATHER SUCH AS PRECIPITATION, FOG, OR THUNDER AND ARE NOT
QUALITY CONTROLLED BY NWS.

THE REMARK "TC" DENOTES TEMPERATURE READING IN DEGREES CELSIUS.

GAZ001>058-271600-
NORTH GEORGIA

CITY           SKY/WX    TMP DP  RH WIND       PRES   REMARKS
ATLANTA        PTSUNNY   77  61  57 SE6       30.13S
ATHENS         CLOUDY    76  60  57 W5        30.16F
CHAMBLEE       CLOUDY    77  61  57 S5        30.14S
ROME           MOSUNNY   77  65  66 E6        30.10S
WEST ATLANTA   CLOUDY    77  61  57 SE8       30.12F
GAINESVILLE    CLOUDY    67  60  78 SE6       30.18F
CARTERSVILLE   CLOUDY    77  64  64 E5        30.12S


CITY           SKY/WX    TMP DP  RH WIND       PRES   REMARKS
DALTON*        CLOUDY    79  64  61 E5        30.11F
LAWRENCEVILLE* PTSUNNY   75  61  60 SE7       30.16F
KENNESAW*      PTSUNNY   75  61  60 MISG      30.10S
CANTON*        PTSUNNY   75  57  53 E5        30.16S
BLAIRSVILLE*     N/A    N/A N/A N/A MISG      30.17F
$$

GAZ059>098-102>109-271600-
CENTRAL GEORGIA

CITY           SKY/WX    TMP DP  RH WIND       PRES   REMARKS
AUGUSTA-BUSH   PTSUNNY   77  61  57 SE3       30.14F
AUGUSTA-DANIEL SUNNY     80  59  48 VRB3      30.16S
COLUMBUS       SUNNY     78  60  53 SE7       30.10F
MACON          SUNNY     79  59  50 E5        30.13S
ROBINS AFB     SUNNY     78  63  61 SE6       30.12F


CITY           SKY/WX    TMP DP  RH WIND       PRES   REMARKS
LAGRANGE*      PTSUNNY   81  67  62 SE6       30.11F
SYLVANIA*      SUNNY     82  61  49 SE6       30.16R
MILLEDGEVILLE* PTSUNNY   77  63  61 CALM      30.14F
$$

GAZ099>101-110>166-271600-
SOUTH GEORGIA

CITY           SKY/WX    TMP DP  RH WIND       PRES   REMARKS
SAVANNAH       MOSUNNY   82  58  43 SE12      30.14R
VALDOSTA       SUNNY     80  63  55 E8        30.10F
ALMA           SUNNY     80  58  46 SE8       30.12S
ST SIMONS      PTSUNNY   80  65  59 NE10      30.12R
FT STEWART     SUNNY     81  61  50 E5        30.11R
ALBANY         SUNNY     80  61  52 SE9       30.12F
MOODY AFB      MOSUNNY   80  60  50 E10       30.09F
BRUNSWICK      MOSUNNY   82  64  54 NE9       30.13R


CITY           SKY/WX    TMP DP  RH WIND       PRES   REMARKS
BAINBRIDGE*    MOSUNNY   79  63  57 SE6       30.09F
MOULTRIE*      SUNNY     79  61  53 SE6       30.11F
VIDALIA*       SUNNY     79  61  53 SE7       30.14F
WAYCROSS*      SUNNY     80  59  48 E12       30.12S
DOUGLAS*       SUNNY     81  55  41 E8        30.13F
$$




USA.gov is the U.S. government's official web portal to all federal, state and local government web resources and services.